GFSGBSN_con_3kmhel_219.txt.gz
Helicity
179 193 193 189 164 189 188 157 108 118 41 55 95 147 194 272 253 258 146 142 121 98 89 82 81 82 89 40 92 55 77 72 64 60 44 33 32 55 36 9 20 -5 39 19 44 65 32
111 137 143 159 151 140 150 149 170 158 92 31 11 14 82 175 182 262 297 158 163 136 108 98 94 116 73 89 65 31 88 69 50 66 48 48 47 47 48 22 -74 -64 -29 9 57 37 54
81 79 113 107 111 118 123 125 132 139 126 56 33 18 -19 3 137 176 244 306 163 197 160 122 115 114 109 91 117 116 321 151 77 76 81 55 52 80 85 82 47 12 -29 -51 2 77 86
33 55 71 87 94 102 110 121 125 143 149 129 87 57 18 -56 36 113 231 195 247 180 193 165 147 175 166 108 26 34 119 172 193 135 149 94 100 94 82 116 43 43 9 29 11 70 41
-16 -7 14 38 71 72 84 110 114 132 144 137 137 116 59 -18 -50 -29 56 145 262 201 174 163 221 237 148 106 100 76 77 103 91 108 127 158 198 153 153 182 140 56 12 55 30 44 66
-26 -18 -17 -1 15 30 43 56 74 86 122 127 133 145 118 56 -4 -22 55 123 135 157 254 145 175 222 334 245 208 91 90 163 156 114 138 203 208 201 216 257 218 82 106 47 54 41 30
-29 -30 -26 -15 -12 9 19 27 42 56 75 76 99 124 134 114 55 34 6 191 120 189 349 631 492 445 247 30 190 225 51 109 170 227 212 211 284 350 193 187 127 123 58 -2 5 22 101
-10 -6 -27 -30 -23 -15 -14 -2 7 27 50 49 48 79 112 132 118 48 121 225 334 262 282 311 261 246 195 41 411 257 173 258 265 299 224 224 241 198 194 147 138 96 79 -4 -81 -26 6
17 2 13 5 -16 -22 -21 -10 6 3 19 36 50 45 45 77 85 131 126 149 363 380 202 129 193 299 413 259 304 224 124 177 325 283 317 337 324 230 179 150 138 116 96 63 30 41 46
53 34 32 25 11 8 4 -6 2 10 25 26 30 41 61 40 137 141 156 77 145 192 225 232 203 235 225 260 105 184 139 231 274 247 256 228 168 209 133 118 145 85 104 54 28 85 61
37 39 36 19 5 2 -4 10 25 28 26 25 40 35 44 60 154 145 148 123 208 247 217 127 238 241 194 473 315 209 204 220 288 261 283 384 300 209 225 214 133 94 68 59 53 71 99
23 35 30 18 3 -5 -15 -33 -44 21 31 38 46 51 53 90 118 130 116 53 92 428 321 85 141 263 323 221 258 422 180 275 272 236 209 185 308 195 159 148 148 96 54 67 56 157 32
6 14 20 18 10 -3 -11 -14 -38 -32 31 38 64 80 93 129 147 110 69 140 530 557 435 283 218 107 120 180 180 134 257 187 345 350 189 227 199 198 252 106 71 20 101 184 260 263 160
11 -1 10 8 4 6 -13 -20 -32 -34 23 23 40 80 121 160 148 136 104 207 542 609 461 488 245 51 94 155 199 113 262 279 190 306 338 298 186 256 306 145 238 175 107 409 420 316 241
23 5 11 -0 11 -3 -18 -19 -29 -15 14 41 39 72 244 209 198 172 200 436 336 531 405 467 523 239 -52 44 182 205 111 291 261 231 403 324 206 120 236 197 217 239 197 197 357 279 239
19 11 -1 -7 -8 -7 10 13 19 2 12 41 89 83 203 267 221 204 232 266 295 294 331 175 324 473 294 104 160 224 214 135 124 124 216 199 185 113 174 111 113 191 199 284 487 344 223
13 18 14 -5 -19 17 42 49 55 28 34 43 125 176 196 290 282 352 337 204 263 236 261 408 169 320 346 273 155 227 263 246 189 132 170 163 192 204 264 147 172 140 218 325 402 436 342
14 13 24 -4 -16 51 64 67 44 30 51 79 189 249 225 421 434 496 402 262 196 217 141 252 238 206 192 251 204 253 280 200 183 221 231 130 167 101 187 234 260 129 222 391 496 501 389
28 17 17 1 -6 67 86 56 36 47 61 213 286 317 151 443 485 532 435 292 177 118 247 220 184 237 128 202 358 272 375 162 303 113 239 152 354 190 160 130 161 291 366 205 374 437 292
22 18 20 -2 17 98 97 50 30 65 57 183 376 444 268 452 472 512 551 341 226 100 128 77 142 162 413 289 251 316 277 244 213 228 149 329 424 266 331 345 329 228 245 214 232 383 366
20 22 17 5 23 87 75 35 41 45 72 177 402 514 504 655 486 475 419 390 290 218 100 128 -119 -13 278 215 274 210 374 184 223 202 247 387 283 354 220 295 231 250 248 202 197 231 313
5 23 28 16 17 75 65 77 90 74 97 184 511 717 524 300 568 479 456 300 224 198 274 73 153 -18 64 303 357 167 29 114 361 252 225 372 327 319 340 333 485 376 292 433 282 251 224
-8 13 38 30 14 65 53 32 43 85 109 279 620 648 482 511 505 467 347 351 255 176 142 114 76 61 -49 147 229 163 154 238 270 453 555 421 591 486 344 372 445 569 378 373 264 242 259
-14 2 33 40 8 45 68 87 107 401 253 556 667 777 621 485 468 350 344 308 253 153 195 179 109 72 -120 -8 62 -14 -46 202 302 223 729 759 617 548 369 470 368 297 240 211 160 114 201
-25 -10 22 50 13 35 65 99 188 332 362 607 603 685 648 572 313 323 263 209 184 189 179 152 125 117 5 -99 56 -186 -20 -72 64 166 485 446 747 489 518 445 481 273 43 84 129 112 104
-27 -22 2 51 19 14 33 67 159 297 358 380 580 537 572 580 297 260 222 252 180 156 156 63 102 83 -22 -39 -46 -188 -172 -200 144 400 567 481 419 525 449 516 420 242 227 89 95 44 88
-26 -23 -5 39 42 18 49 35 69 249 429 481 533 379 391 515 432 392 324 159 142 164 128 125 61 88 80 72 27 -126 -313 -157 -13 288 509 467 477 370 495 504 521 437 226 331 361 106 218
33 -22 -7 27 52 21 20 53 70 89 282 371 456 536 487 468 340 224 171 194 147 119 80 123 112 109 114 83 108 147 -55 77 141 256 501 569 696 621 552 641 498 352 276 427 380 413 253
30 -10 -10 11 44 18 -0 63 51 21 55 93 36 106 94 181 182 149 118 64 62 103 144 108 99 186 143 25 -33 32 85 65 -51 103 510 541 580 739 660 604 564 405 492 491 368 333 293

GFSGBSN_con_3kmhel_222.txt.gz
Helicity
60 79 111 145 161 161 156 151 144 124 100 60 69 11 41 114 178 231 251 237 143 131 124 108 92 105 87 88 147 -24 54 189 235 131 103 96 102 106 92 64 70 42 -14 -51 4 62 36
-1 12 35 79 112 144 143 142 145 124 120 111 67 39 15 9 32 185 201 248 249 139 125 128 137 142 137 85 97 58 64 7 95 144 126 121 94 130 83 74 98 58 -7 -117 -153 -19 60
-11 -17 -9 3 21 45 109 113 98 116 129 122 84 65 31 27 -48 -21 65 162 226 237 122 113 141 178 146 109 177 90 195 121 115 101 50 99 84 179 183 116 98 59 24 -56 -224 -146 -12
-7 -17 -13 -15 -16 5 25 79 103 126 136 139 139 106 86 20 43 -36 -59 44 171 158 176 131 137 178 174 224 131 101 66 114 181 99 65 98 115 112 125 139 147 118 84 52 28 -22 -70
-4 3 -7 -15 -17 -27 -9 16 31 59 109 124 125 117 98 81 47 41 19 -16 83 115 114 164 314 257 130 157 130 104 146 125 114 111 127 94 187 187 209 189 159 132 95 117 29 23 23
9 7 -9 -3 -16 -16 -21 -10 8 18 32 69 99 119 121 88 64 48 50 131 63 162 126 161 278 266 250 116 103 176 82 165 163 160 170 162 230 304 292 311 268 158 213 167 92 46 112
38 32 10 12 -2 -21 -23 -19 -13 0 6 21 48 48 109 109 89 75 72 70 23 130 169 381 304 342 293 56 180 228 167 163 251 229 210 235 316 463 336 289 249 168 205 155 119 33 86
47 52 50 31 27 12 -7 -18 -17 -14 -6 5 23 44 53 69 74 87 92 107 302 216 277 91 254 135 162 270 324 195 199 291 345 318 248 278 147 319 252 216 221 194 144 127 38 -3 12
59 68 78 77 59 51 42 24 11 2 -4 -9 -3 21 38 50 43 98 134 131 232 15 257 195 96 217 319 186 277 196 240 248 365 350 372 295 332 277 276 232 223 191 159 127 105 -3 3
49 45 54 56 53 59 46 38 40 26 16 7 2 9 20 40 133 111 154 65 63 136 409 232 98 133 254 280 209 244 211 311 294 286 277 217 176 264 194 223 247 166 169 131 68 70 51
38 36 31 31 40 43 33 32 37 38 48 28 23 12 21 24 100 120 68 115 166 156 480 190 235 163 96 387 416 103 224 385 286 417 416 433 272 243 252 219 231 291 240 160 103 66 36
46 38 32 24 19 21 16 24 20 11 15 12 22 28 18 68 107 138 100 98 -99 352 438 376 311 227 232 133 267 409 129 215 326 263 193 155 178 150 117 253 266 250 220 113 112 97 -6
34 44 45 39 29 26 14 14 10 -7 -22 -15 16 28 41 107 123 122 106 151 342 560 461 428 540 377 168 63 149 205 339 170 348 328 165 195 161 221 236 174 150 209 190 262 268 274 36
28 35 47 54 40 27 22 12 15 17 2 -12 42 1 22 62 181 176 198 201 352 393 504 441 384 312 225 212 199 139 288 314 246 363 382 319 188 151 309 242 268 234 262 475 483 339 197
26 27 27 38 51 46 19 15 32 36 22 8 39 71 109 74 146 255 320 184 258 395 320 423 499 332 274 208 179 63 169 280 303 384 449 341 215 294 252 369 310 256 244 252 353 354 209
14 23 26 27 29 41 16 -18 10 37 38 20 107 107 81 90 165 319 330 233 230 212 267 332 342 489 429 319 275 191 277 234 259 232 384 388 273 213 153 123 178 286 385 364 319 262 196
10 12 21 29 29 29 25 -14 12 49 64 33 106 138 120 145 199 334 450 408 248 202 149 216 342 358 404 307 226 311 277 230 181 242 258 224 273 233 121 222 234 264 190 325 292 466 363
5 1 4 29 33 32 27 -17 28 64 58 54 110 191 112 158 263 321 476 407 285 191 126 158 242 311 299 427 186 132 162 160 131 336 306 272 259 204 232 240 142 142 221 241 421 397 387
9 -3 -12 11 35 37 33 1 59 86 59 71 151 177 164 252 302 367 354 349 383 276 230 133 97 154 160 217 239 178 174 164 198 129 288 384 439 235 163 177 232 237 100 139 323 339 161
18 1 -14 -11 18 39 35 18 94 92 27 60 166 254 408 417 421 310 439 439 409 300 195 206 163 -23 121 64 198 343 172 163 169 198 167 407 512 410 314 211 281 202 182 206 200 317 288
23 3 -10 -18 -7 29 21 25 105 45 32 71 248 393 450 536 565 565 442 500 427 400 262 244 135 110 18 -71 -239 145 283 309 109 130 116 275 260 385 227 149 146 190 222 351 455 454 466
20 21 -12 -16 -18 6 9 21 49 50 20 30 244 478 635 484 515 482 490 528 560 417 344 216 217 75 -12 18 -110 -65 205 241 233 157 282 288 366 312 218 87 188 250 136 307 404 416 393
18 17 -14 -17 -19 -4 0 0 21 30 116 113 330 326 554 498 613 638 578 564 522 474 261 243 196 189 141 -2 -94 -161 -243 -118 174 357 387 329 342 390 240 194 228 233 251 226 274 388 392
14 13 -6 -21 -17 -5 0 -5 34 36 93 78 155 520 827 651 617 760 585 560 466 408 255 134 196 131 158 85 -70 -256 -182 -325 -250 -73 82 312 306 431 457 351 390 503 226 254 192 245 382
17 16 14 -17 -13 -6 3 -4 47 36 105 42 123 348 758 506 389 576 560 495 422 277 75 118 82 76 120 92 -4 -228 -519 -476 -391 -94 151 220 289 329 428 538 632 501 360 243 353 270 250
16 19 15 -15 -10 -5 5 4 21 46 123 53 221 343 499 631 446 426 435 442 445 251 128 94 166 141 96 86 54 -12 -251 -301 -385 -143 -21 36 54 163 577 663 520 340 210 300 468 264 115
14 14 15 -9 -4 -3 9 -8 -10 53 101 136 105 310 306 462 283 392 400 422 329 316 258 225 228 143 110 99 82 110 -46 -283 -67 -57 -118 27 49 161 218 565 645 286 296 405 413 188 160
10 8 16 11 4 3 19 -6 -7 77 76 125 134 222 246 343 348 378 371 398 333 168 204 170 194 203 220 176 120 84 35 -94 -105 -116 -120 -118 21 147 236 300 198 299 412 382 384 467 138
5 4 12 14 6 3 14 -7 -8 113 -18 64 44 98 87 214 323 337 326 161 143 161 223 191 170 151 192 190 184 108 67 57 -141 -262 -11 -64 33 110 271 310 553 285 292 303 360 332 161

GFSGBSN_con_3kmhel_225.txt.gz
Helicity
-10 -3 -24 -19 24 69 143 165 150 119 126 122 86 60 -30 1 111 170 192 231 244 220 151 116 94 91 103 112 151 58 33 131 252 225 175 139 135 120 103 92 119 100 51 -3 -19 18 78
4 0 -8 -19 -32 -6 21 67 113 117 127 132 128 111 22 -66 9 0 101 160 209 223 209 133 108 124 145 97 87 85 70 -15 89 194 225 225 187 172 116 86 118 121 106 -19 -57 -74 -7
17 5 -15 -15 -19 -33 -28 1 31 71 86 86 102 109 101 48 -2 0 76 61 148 174 205 220 104 156 134 132 132 126 211 126 85 111 133 137 158 196 208 143 129 91 96 0 -70 -61 -39
20 18 -4 0 -9 -12 -20 -31 -24 16 47 74 93 132 117 115 78 57 44 22 76 158 199 191 145 174 162 100 77 130 113 88 147 129 79 102 114 108 156 100 166 131 102 82 24 97 52
45 40 30 21 -1 -6 -12 -12 -25 -25 2 22 41 86 119 111 95 98 77 79 85 144 109 165 169 273 161 110 144 126 127 125 110 100 115 60 133 119 176 178 191 180 177 134 42 43 73
62 62 58 53 27 28 4 -17 -20 -25 -19 0 18 40 64 80 92 82 83 124 132 72 94 164 163 247 261 140 63 140 111 150 182 178 188 156 192 247 341 413 319 259 276 206 140 33 71
76 76 72 59 53 43 42 31 -5 -17 -19 -19 -1 18 40 57 76 95 92 30 -2 -47 71 229 237 328 238 66 94 126 183 208 303 253 293 272 275 339 362 311 272 210 166 190 154 66 52
52 60 74 74 77 75 80 64 51 48 14 -10 -17 -8 16 46 50 74 78 77 72 63 224 134 213 172 182 155 132 116 92 265 342 360 338 311 207 275 250 231 231 216 176 165 104 53 63
56 62 58 57 65 62 67 82 84 57 42 28 12 0 -10 21 53 98 130 115 52 76 155 200 154 157 243 207 253 215 114 172 250 325 357 355 265 260 284 288 271 249 232 202 174 55 -12
50 65 65 56 46 48 62 65 61 65 63 58 39 14 3 13 64 76 120 49 57 7 287 131 136 122 241 281 220 255 188 213 227 184 226 218 186 299 192 237 306 240 291 223 162 146 74
37 45 60 70 70 56 42 47 51 51 52 55 67 59 23 3 92 54 45 122 152 107 241 141 209 183 126 319 421 106 204 351 251 299 333 339 293 199 235 235 256 250 289 198 157 118 70
35 34 42 56 61 62 54 45 40 35 41 45 36 45 48 48 127 110 135 153 157 283 248 317 220 227 271 160 235 299 150 162 244 257 205 168 253 205 183 174 263 270 184 124 152 144 27
14 37 39 41 46 60 68 62 45 34 31 28 23 14 36 77 75 123 238 146 213 414 420 289 300 320 138 186 228 289 326 178 380 374 246 216 205 251 277 184 122 216 308 238 178 253 61
8 15 30 38 47 46 58 73 67 44 21 24 24 24 32 65 96 127 130 180 192 255 317 445 341 209 194 197 151 160 380 425 225 315 356 282 197 230 348 327 294 216 327 510 392 298 226
9 8 17 21 31 40 46 51 71 47 26 22 33 60 98 127 102 183 292 246 236 170 154 177 370 531 252 155 251 136 206 312 416 384 457 296 234 297 171 371 378 329 387 330 408 296 250
10 8 15 16 16 22 29 39 38 30 15 33 25 67 94 143 115 226 310 258 225 261 163 136 179 262 359 216 271 159 245 222 237 275 478 536 326 202 146 96 205 378 440 420 301 207 169
16 10 10 17 9 10 19 25 26 37 7 32 25 61 60 169 146 258 254 315 213 249 227 163 166 212 188 294 294 201 251 268 196 214 203 282 358 254 106 272 297 367 326 370 344 346 307
18 15 12 13 14 6 16 34 21 21 16 44 48 84 137 173 149 278 283 428 261 233 289 238 155 114 129 212 214 162 190 194 99 154 260 345 315 266 307 252 105 213 378 465 584 346 357
14 19 16 12 14 8 5 17 32 15 40 60 49 98 66 179 239 239 157 98 176 254 231 303 228 192 119 138 149 61 57 -20 233 148 219 321 420 331 281 245 275 291 157 262 373 442 278
5 12 19 14 15 5 3 10 21 11 55 58 65 87 144 275 305 229 194 144 156 218 233 159 203 230 155 124 138 120 71 -105 56 64 69 202 279 323 366 275 320 262 226 163 198 372 230
8 3 9 13 13 5 -3 3 18 27 4 25 160 168 232 182 200 312 304 288 230 246 280 314 234 209 179 150 114 136 52 114 28 197 143 140 279 142 145 171 173 201 353 245 216 174 297
6 7 10 7 7 11 -5 -2 12 20 29 17 45 104 187 283 262 274 313 300 342 286 434 304 273 178 252 171 94 31 31 46 -16 -151 -139 48 269 275 221 145 250 199 197 306 268 189 158
9 5 9 5 8 9 -3 -2 11 18 14 22 40 72 100 102 196 345 628 591 490 355 387 374 414 310 247 149 123 152 138 76 -87 -226 -177 -138 48 460 196 186 210 269 303 181 249 222 179
15 9 5 8 6 8 8 -1 7 24 5 41 79 75 134 -15 179 271 327 477 498 494 406 435 352 262 235 191 206 133 89 26 -19 -118 -147 -278 -67 -222 333 686 219 320 229 317 244 174 185
14 14 2 3 4 5 12 5 14 32 10 17 67 140 197 138 205 163 226 382 509 396 310 382 359 396 249 89 105 83 102 34 11 20 -160 -213 -70 -297 -157 164 214 120 123 182 337 174 196
16 15 4 -1 1 5 17 12 10 28 13 7 57 64 157 163 196 158 243 532 715 512 361 449 357 225 265 236 186 148 104 55 -18 -402 -149 -245 -270 38 20 -60 -83 238 130 254 255 296 304
22 13 3 -4 -7 -1 12 14 1 19 10 6 69 75 88 119 114 179 383 448 606 595 602 639 353 275 192 168 146 135 110 65 84 -144 -415 -325 -351 -22 214 121 66 78 27 211 315 428 244
20 17 3 -8 -12 -8 8 11 15 8 9 32 77 62 43 73 146 168 259 414 519 487 382 239 230 302 250 213 234 179 100 117 69 66 -56 -158 -61 46 -104 193 155 70 -22 235 355 413 289
21 15 2 -10 -25 -14 5 8 21 20 93 55 43 48 55 40 42 160 188 207 204 200 283 305 215 223 269 243 220 164 120 114 62 -16 -36 -51 5 -99 -24 18 150 310 127 173 272 217 257

GFSGBSN_con_3kmhel_228.txt.gz
Helicity
34 15 -6 -10 -30 -30 -26 -6 47 78 110 139 122 112 98 58 45 -12 87 163 229 258 230 182 113 85 109 128 153 76 53 69 176 186 181 187 172 136 119 110 155 102 68 61 54 42 27
50 44 37 25 -5 -17 -25 -23 -14 15 50 58 99 107 99 97 82 15 -12 100 188 258 254 227 130 113 166 132 89 98 87 19 40 129 202 177 189 191 167 138 141 148 89 56 32 58 38
70 60 58 75 50 11 -17 -16 -13 -17 -7 37 56 90 85 62 145 81 -24 -61 19 204 279 232 240 163 149 121 148 140 185 98 96 121 143 146 169 168 203 175 150 143 112 50 25 69 82
71 85 92 89 59 54 21 -6 -12 -17 -19 -14 24 56 65 91 95 145 61 10 -79 -30 71 200 264 183 187 70 85 115 124 142 104 66 109 104 126 138 169 164 175 125 134 150 91 148 100
59 78 100 100 79 73 51 41 12 -13 -15 -13 -5 18 45 62 85 114 94 76 51 51 -21 81 150 219 196 93 158 146 128 104 125 113 110 98 154 132 173 229 176 175 258 178 111 68 110
52 60 70 85 89 86 82 63 50 63 7 -25 -24 -7 11 33 54 73 130 92 79 65 53 -52 123 202 199 176 87 95 114 152 163 141 171 167 196 230 282 366 323 345 306 232 167 126 91
48 51 56 72 87 99 103 119 123 80 57 27 18 -19 -4 11 38 58 85 104 31 -158 -46 95 183 306 271 60 142 161 167 213 269 250 278 264 328 303 340 329 248 216 207 195 238 175 99
41 41 50 69 80 79 80 85 88 81 78 58 29 -4 6 1 20 62 52 132 91 48 -13 35 128 221 217 288 195 109 148 243 294 312 308 336 273 244 252 211 219 226 224 159 207 121 131
45 46 33 48 63 78 72 62 76 70 86 76 68 46 0 33 26 44 55 78 49 67 9 14 41 99 204 168 282 214 127 201 277 280 296 328 202 214 263 283 271 238 238 210 166 133 88
32 35 29 28 55 66 67 63 61 63 82 78 83 78 60 14 36 30 22 25 42 8 -26 -92 53 65 148 289 154 168 171 232 278 143 248 250 125 217 175 208 238 188 262 213 169 151 95
22 23 28 29 37 41 51 56 59 60 68 57 68 73 86 58 35 32 20 35 46 55 58 23 68 170 19 251 215 144 182 266 230 202 274 205 283 227 237 241 255 228 207 187 150 169 107
16 20 23 25 24 33 38 38 46 57 54 43 35 58 67 74 99 107 87 135 85 189 213 210 139 106 197 88 159 187 119 207 245 168 206 104 156 104 109 119 229 202 289 275 186 139 106
16 18 18 16 21 28 35 41 39 39 43 39 13 12 61 66 79 101 123 155 25 119 220 202 194 239 41 160 165 266 222 207 348 366 259 177 112 274 236 154 160 248 250 198 161 261 149
19 21 21 14 9 21 25 33 49 45 37 33 22 3 26 95 69 111 202 167 154 90 106 158 233 279 195 138 155 125 268 292 201 304 311 257 159 207 368 318 433 271 316 439 293 252 179
13 19 22 17 15 13 20 19 35 48 38 32 33 18 55 85 82 106 174 228 107 92 119 88 113 181 265 223 210 154 113 200 266 272 366 263 179 272 127 334 417 380 300 298 398 327 168
18 11 21 19 15 14 20 14 16 32 38 35 -11 5 39 84 115 133 145 129 144 202 172 135 178 88 194 150 134 142 148 194 183 189 277 355 212 173 216 82 162 294 392 385 315 279 220
5 12 15 16 16 10 14 19 5 12 36 29 -6 8 35 137 173 175 181 167 93 206 140 129 101 147 109 158 189 126 151 119 78 176 198 246 285 147 158 270 315 293 299 400 345 423 286
12 8 9 20 11 10 8 14 11 8 17 8 27 33 43 168 120 221 134 215 151 137 121 111 127 114 70 83 136 161 214 108 370 272 101 136 210 173 204 285 155 221 315 466 505 377 334
21 18 9 11 13 6 7 8 12 15 20 12 53 72 81 99 201 159 169 -16 70 57 118 140 142 129 85 59 77 80 53 10 127 27 201 128 169 189 166 230 293 151 224 345 371 474 274
18 15 16 14 7 1 3 2 7 18 31 25 25 20 69 167 140 143 130 75 14 102 28 178 154 83 104 80 141 83 69 -33 -113 93 23 -43 184 203 225 247 371 415 247 183 245 340 253
19 22 11 19 15 10 0 -3 5 19 32 39 68 34 59 135 94 163 176 155 -2 52 171 126 117 128 157 82 64 69 100 104 119 -33 3 25 -83 1 80 75 189 253 281 367 285 206 280
17 10 13 26 7 11 5 2 -1 23 32 54 65 53 34 32 115 62 83 114 -24 85 160 162 143 121 222 168 221 137 138 107 80 -4 -131 -74 -29 81 86 160 40 186 207 306 312 252 199
15 11 19 33 7 14 6 1 -4 15 38 52 57 103 113 16 15 54 88 104 33 168 188 219 305 256 238 254 323 208 158 65 32 12 -59 -88 -240 -305 -192 -114 108 270 160 187 144 224 192
18 17 27 36 20 5 8 -1 -7 -1 17 61 55 54 52 -65 -4 7 47 71 90 181 211 271 263 293 466 327 190 110 82 70 39 14 18 -8 -8 -161 -313 -342 -70 -47 185 331 231 180 185
26 14 26 21 10 1 2 -4 -4 -4 -1 51 46 76 64 -53 -12 -1 48 86 116 160 78 204 338 383 314 212 231 192 195 187 96 39 28 44 41 -52 -376 -370 -142 30 91 402 187 136 157
29 17 19 34 20 4 -9 -7 -3 -6 3 38 38 77 118 47 -52 47 39 70 77 194 259 288 296 213 394 406 354 265 201 181 83 76 -19 74 91 77 -64 -298 -407 -177 -152 50 105 403 170
21 28 37 23 18 -4 -10 -18 -11 -7 13 16 47 43 116 71 42 76 95 54 125 169 206 175 357 363 400 459 352 282 230 176 200 118 72 150 155 31 -74 -38 -238 -479 -292 -241 -122 246 222
36 38 42 28 14 -3 -20 -36 -22 -14 10 -17 38 25 175 47 0 48 81 102 120 176 198 218 323 426 421 413 461 392 258 247 225 181 126 117 116 94 52 -46 -159 -488 -321 -200 -44 24 -10
39 42 36 24 2 -16 -55 -51 -23 11 18 23 13 115 84 87 99 56 14 58 91 73 189 271 251 354 441 470 415 414 306 272 237 219 150 136 225 191 142 84 -14 -70 -40 125 73 20 -20

GFSGBSN_con_3kmhel_231.txt.gz
Helicity
72 87 89 88 83 67 26 -6 -18 -10 -16 -18 20 65 105 96 57 51 19 -60 75 250 237 329 351 74 116 132 151 94 37 114 175 130 142 188 221 221 180 122 142 121 98 53 48 52 35
80 66 81 90 85 97 90 53 13 -1 2 -11 -27 2 51 68 84 84 12 -46 -93 11 220 247 338 347 178 122 94 122 115 39 80 160 220 183 180 189 176 174 133 115 99 83 74 65 56
71 68 95 109 113 114 108 81 56 19 2 -0 -18 -24 10 74 64 80 80 18 -48 -79 -47 149 271 320 197 110 128 154 207 158 121 118 137 137 183 196 187 202 139 169 120 93 63 73 75
52 58 72 92 94 97 99 94 85 73 23 4 -12 -22 -10 23 46 51 102 74 47 -51 -132 -95 112 250 229 69 72 140 143 208 133 117 148 148 166 162 204 225 208 178 172 142 82 55 88
53 48 59 72 80 77 74 80 103 91 83 65 22 -1 -10 -4 17 45 48 79 49 14 -74 -239 -171 153 196 78 108 130 104 116 135 137 99 132 159 173 182 199 212 229 222 162 116 12 83
53 46 55 67 74 75 59 62 90 104 116 95 83 55 26 -4 2 22 50 32 43 39 33 -201 -237 79 274 205 41 56 123 126 138 150 194 205 210 202 224 266 315 320 267 209 151 126 116
55 67 70 54 61 60 60 55 67 91 94 92 74 62 42 29 2 13 21 14 47 31 -40 -139 -161 2 254 305 87 150 131 161 186 226 266 299 310 263 230 198 184 236 172 139 174 171 150
46 44 63 51 42 53 54 51 60 63 68 80 75 79 81 55 28 32 26 -4 45 29 -3 -68 -138 -170 106 105 219 107 137 248 338 268 299 335 266 229 250 162 169 168 173 154 162 231 182
43 42 36 42 47 42 35 41 46 62 57 56 64 78 75 81 57 52 2 -26 23 19 1 -68 -73 -86 -5 91 133 115 72 178 238 293 298 345 169 236 233 233 212 184 181 177 175 154 117
39 36 29 32 38 41 32 31 29 49 57 52 47 46 65 71 50 58 11 16 18 18 38 -108 -92 5 74 36 48 7 82 171 213 151 263 274 187 206 196 204 215 164 148 148 136 137 116
35 28 23 25 29 35 27 23 28 33 45 52 45 33 40 68 81 67 58 15 17 11 142 13 8 83 -16 238 127 64 68 167 236 289 341 241 307 346 333 235 214 183 206 160 103 79 70
30 26 20 22 25 31 31 22 20 29 36 41 42 48 45 31 85 73 68 27 54 5 42 91 57 37 102 -52 2 195 119 163 229 262 174 184 134 139 151 270 190 192 291 262 302 186 157
38 23 18 22 23 26 23 25 23 26 31 33 33 41 34 37 55 62 89 102 65 57 41 31 68 70 -28 30 12 133 184 179 280 296 283 201 182 167 148 151 142 139 145 273 240 319 242
28 30 21 24 21 21 23 19 21 21 25 34 33 30 9 61 59 72 125 110 82 20 32 44 83 160 123 71 109 77 137 134 178 219 297 294 236 156 141 111 184 150 240 428 313 269 146
39 36 29 19 25 21 20 16 16 18 20 32 38 17 7 32 99 101 109 91 133 141 50 58 55 106 150 155 124 26 45 125 179 213 259 233 255 147 135 208 237 221 185 239 293 309 182
30 45 49 30 22 21 17 16 19 16 22 32 35 23 53 75 98 96 102 56 161 136 131 79 33 15 123 188 142 89 88 112 210 132 147 169 177 160 34 8 38 135 197 270 321 259 201
33 40 38 38 29 26 13 14 17 18 24 26 50 34 18 113 92 128 87 143 108 -80 161 85 62 77 62 109 177 173 147 129 5 67 64 75 117 132 137 214 236 241 244 332 291 341 251
40 33 36 36 25 22 18 11 14 17 34 39 45 26 24 89 50 118 130 155 136 128 124 47 62 29 15 39 62 98 128 52 225 255 264 123 194 145 149 137 72 158 248 369 366 322 280
28 33 32 33 25 24 20 25 13 16 30 52 30 39 50 100 91 45 45 97 55 78 108 66 54 34 16 31 32 10 52 45 2 -138 185 335 254 151 113 119 134 124 156 229 226 265 187
34 21 44 18 24 18 20 23 18 13 22 68 64 26 29 75 104 79 25 48 61 61 36 106 102 61 32 44 41 29 36 3 -57 -63 -140 -227 152 271 157 245 372 162 218 153 209 289 188
35 30 40 23 10 18 12 13 26 22 26 77 89 77 60 33 10 28 55 39 10 44 11 27 28 -39 -4 37 48 98 79 74 67 52 -17 -97 -255 -42 110 180 345 280 429 280 181 237 236
39 23 36 23 17 19 23 16 8 27 32 90 163 98 32 -25 31 29 -5 33 21 45 106 52 -15 2 27 101 235 91 25 63 65 -16 12 -56 -279 -339 -192 -138 -118 260 187 270 309 159 197
33 17 26 21 14 16 16 20 -2 23 44 99 107 87 61 -66 4 52 28 -32 8 12 6 17 40 25 38 265 68 66 53 52 58 38 3 -20 -53 -117 -335 -208 -262 -176 110 31 27 101 196
36 2 18 26 7 43 35 15 3 16 29 93 87 66 84 -59 -101 -54 -44 -6 -17 -9 -0 13 42 50 156 84 77 86 97 57 60 65 69 51 11 -17 -13 -135 -348 -351 -91 19 76 148 185
60 23 13 11 -6 13 36 20 3 -4 -0 70 53 67 111 20 -10 -79 -38 -20 -15 -7 2 15 45 83 105 120 181 181 194 163 158 116 130 128 92 79 -67 -214 -134 -13 32 54 56 130 242
53 24 2 6 -1 -1 20 26 6 3 -0 38 51 71 98 97 -12 -5 1 -12 -14 2 15 53 126 148 139 211 335 321 278 226 104 121 48 158 166 154 101 29 -206 -108 -239 -255 -115 58 87
59 20 16 27 28 30 26 11 -9 -5 -19 16 35 70 55 -45 40 -6 78 32 50 72 61 72 73 152 159 295 410 376 357 188 278 235 193 156 138 129 171 181 127 15 -112 -91 -314 -40 -6
42 33 35 36 35 26 13 -2 -8 -51 -61 -5 15 45 62 -34 84 1 32 84 67 12 81 78 70 119 169 252 322 259 257 228 239 176 211 256 228 217 176 190 157 65 14 -51 14 -14 -95
41 59 35 37 45 34 14 -6 -50 -85 -42 -0 -40 4 9 114 105 109 86 45 82 -1 29 99 136 126 184 198 229 225 222 157 156 259 185 235 337 333 244 284 166 34 31 -55 -132 -72 6